User: anonymous   Login
Location: Newark
(52.3735°N, 16.9806°E)
Time: 03:21:18
(UTC+00:00)
Language:

BEESAT - Orbit

View from above orbital plane
View from above orbital plane
View from above satellite
View from above satellite

Ground track
Ground track

The orbit data is extracted from the following two-line orbital elements,

1 35933U 09051C   21332.83759988  .00000206  00000-0  57196-4 0  9996
2 35933  98.5817 179.6816 0005128 326.0742  34.0127 14.56669570646968
Epoch (UTC): 28 November 2021 20:06:08
Eccentricity: 0.0005128
inclination: 98.5817°
perigee height: 700 km
apogee height: 707 km
right ascension of ascending node: 179.6816°
argument of perigee: 326.0742°
revolutions per day: 14.56669570
mean anomaly at epoch: 34.0127°
orbit number at epoch: 64696

The dashed part of the orbit path shows where the satellite is in the earth's shadow,  

DLR